TimeEDT,TemperatureF,Dew PointF,Humidity,Sea Level PressureIn,VisibilityMPH,Wind Direction,Wind SpeedMPH,Gust SpeedMPH,PrecipitationIn,Events,Conditions,WindDirDegrees,DateUTC
12:55 AM,54.0,54.0,100,30.09,5.0,North,-9999.0,-,N/A,,Overcast,0,2013-05-09 04:55:00
1:15 AM,54.5,54.5,100,30.09,4.0,North,-9999.0,-,N/A,,Overcast,0,2013-05-09 05:15:00
1:35 AM,54.7,54.7,100,30.09,4.0,North,-9999.0,-,N/A,,Overcast,0,2013-05-09 05:35:00
1:55 AM,55.4,55.4,100,30.08,5.0,North,-9999.0,-,N/A,,Overcast,0,2013-05-09 05:55:00
2:15 AM,55.0,55.0,100,30.08,4.0,North,-9999.0,-,N/A,,Overcast,0,2013-05-09 06:15:00
2:35 AM,55.4,55.4,100,30.07,4.0,North,-9999.0,-,N/A,,Overcast,0,2013-05-09 06:35:00
2:55 AM,55.6,55.6,100,30.07,4.0,North,-9999.0,-,N/A,,Overcast,0,2013-05-09 06:55:00
3:35 AM,55.8,55.8,100,30.06,4.0,North,-9999.0,-,N/A,,Overcast,0,2013-05-09 07:35:00
3:55 AM,55.8,55.8,100,30.06,5.0,North,-9999.0,-,N/A,,Overcast,0,2013-05-09 07:55:00
4:15 AM,55.8,55.8,100,30.07,5.0,North,-9999.0,-,N/A,,Overcast,0,2013-05-09 08:15:00
4:35 AM,55.9,55.9,100,30.07,5.0,North,-9999.0,-,N/A,,Overcast,0,2013-05-09 08:35:00
5:35 AM,55.9,55.9,100,30.08,5.0,North,-9999.0,-,N/A,,Overcast,0,2013-05-09 09:35:00
5:55 AM,56.3,56.3,100,30.09,4.0,North,-9999.0,-,N/A,,Overcast,0,2013-05-09 09:55:00
6:15 AM,55.8,55.8,100,30.10,4.0,North,-9999.0,-,N/A,,Overcast,0,2013-05-09 10:15:00
6:35 AM,54.9,54.9,100,30.11,0.8,North,-9999.0,-,N/A,,Overcast,0,2013-05-09 10:35:00
6:55 AM,54.5,54.5,100,30.12,0.2,North,-9999.0,-,N/A,Fog,Fog,0,2013-05-09 10:55:00
7:15 AM,54.5,54.5,100,30.13,0.2,North,-9999.0,-,N/A,Fog,Fog,0,2013-05-09 11:15:00
7:55 AM,56.5,56.5,100,30.14,7.0,North,-9999.0,-,N/A,,Overcast,0,2013-05-09 11:55:00
8:15 AM,57.2,57.2,100,30.15,10.0,North,-9999.0,-,N/A,,Overcast,0,2013-05-09 12:15:00
9:15 AM,61.2,57.6,88,30.16,10.0,North,-9999.0,-,N/A,,Mostly Cloudy,0,2013-05-09 13:15:00
10:15 AM,66.0,57.9,75,30.15,10.0,North,-9999.0,-,N/A,,Clear,0,2013-05-09 14:15:00
10:55 AM,67.8,57.4,69,30.15,10.0,North,-9999.0,-,N/A,,Clear,0,2013-05-09 14:55:00
11:35 AM,70.2,58.1,65,30.15,10.0,North,-9999.0,-,N/A,,Clear,0,2013-05-09 15:35:00
12:15 PM,72.0,57.2,60,30.16,10.0,North,-9999.0,-,N/A,,Scattered Clouds,0,2013-05-09 16:15:00
12:35 PM,72.5,57.4,59,30.16,10.0,North,-9999.0,-,N/A,,Scattered Clouds,0,2013-05-09 16:35:00
1:15 PM,73.2,57.0,57,30.15,10.0,North,-9999.0,-,N/A,,Clear,0,2013-05-09 17:15:00
1:35 PM,73.2,56.1,55,30.15,10.0,North,-9999.0,-,N/A,,Scattered Clouds,0,2013-05-09 17:35:00
1:55 PM,74.1,56.5,54,30.15,10.0,North,-9999.0,-,N/A,,Scattered Clouds,0,2013-05-09 17:55:00
2:35 PM,76.6,56.3,49,30.14,10.0,North,-9999.0,-,N/A,,Mostly Cloudy,0,2013-05-09 18:35:00
2:55 PM,75.9,56.1,50,30.13,10.0,North,-9999.0,-,N/A,,Scattered Clouds,0,2013-05-09 18:55:00
3:35 PM,77.9,55.9,47,30.13,10.0,North,-9999.0,-,N/A,,Scattered Clouds,0,2013-05-09 19:35:00
4:35 PM,76.6,56.5,50,30.11,10.0,North,-9999.0,-,N/A,,Scattered Clouds,0,2013-05-09 20:35:00
4:55 PM,76.8,55.0,47,30.10,10.0,North,-9999.0,-,N/A,,Scattered Clouds,0,2013-05-09 20:55:00
5:15 PM,77.5,55.4,46,30.10,10.0,North,-9999.0,-,N/A,,Mostly Cloudy,0,2013-05-09 21:15:00
5:35 PM,78.3,53.8,43,30.10,10.0,North,-9999.0,-,N/A,,Scattered Clouds,0,2013-05-09 21:35:00
5:55 PM,75.6,56.3,51,30.10,10.0,North,-9999.0,-,N/A,,Clear,0,2013-05-09 21:55:00
6:15 PM,77.5,55.2,46,30.09,10.0,North,-9999.0,-,N/A,,Mostly Cloudy,0,2013-05-09 22:15:00
6:35 PM,75.0,56.3,52,30.09,10.0,North,-9999.0,-,N/A,,Mostly Cloudy,0,2013-05-09 22:35:00
6:55 PM,73.2,58.3,59,30.10,10.0,North,-9999.0,-,N/A,,Mostly Cloudy,0,2013-05-09 22:55:00
7:15 PM,72.5,60.1,65,30.10,10.0,North,-9999.0,-,N/A,,Mostly Cloudy,0,2013-05-09 23:15:00
7:35 PM,68.7,60.6,75,30.10,10.0,North,-9999.0,-,N/A,,Scattered Clouds,0,2013-05-09 23:35:00
7:55 PM,66.9,61.2,82,30.11,10.0,North,-9999.0,-,N/A,,Clear,0,2013-05-09 23:55:00
8:15 PM,65.3,60.8,85,30.11,10.0,North,-9999.0,-,N/A,,Clear,0,2013-05-10 00:15:00
8:35 PM,63.3,59.7,88,30.11,10.0,North,-9999.0,-,N/A,,Clear,0,2013-05-10 00:35:00
8:55 PM,61.9,59.2,91,30.11,10.0,North,-9999.0,-,N/A,,Clear,0,2013-05-10 00:55:00
9:15 PM,61.0,58.8,93,30.12,10.0,North,-9999.0,-,N/A,,Clear,0,2013-05-10 01:15:00
9:35 PM,59.9,58.5,95,30.13,10.0,North,-9999.0,-,N/A,,Scattered Clouds,0,2013-05-10 01:35:00
9:55 PM,59.5,58.3,96,30.13,10.0,North,-9999.0,-,N/A,,Scattered Clouds,0,2013-05-10 01:55:00
10:15 PM,58.8,57.7,96,30.14,10.0,North,-9999.0,-,N/A,,Clear,0,2013-05-10 02:15:00
10:35 PM,58.3,57.7,98,30.14,10.0,North,-9999.0,-,N/A,,Clear,0,2013-05-10 02:35:00
10:55 PM,57.6,57.2,99,30.14,10.0,North,-9999.0,-,N/A,,Clear,0,2013-05-10 02:55:00
11:15 PM,57.4,57.4,100,30.14,10.0,North,-9999.0,-,N/A,,Clear,0,2013-05-10 03:15:00
11:35 PM,57.0,57.0,100,30.14,7.0,North,-9999.0,-,N/A,,Clear,0,2013-05-10 03:35:00
11:55 PM,56.5,56.5,100,30.14,7.0,North,-9999.0,-,N/A,,Clear,0,2013-05-10 03:55:00